COSMOS 2251 DEB, 39553

Orbit data source: Space-Track

COSMOS 2251 DEB, 39553 is space debris in LEO originally from a launch on Wed, 16 Jun 1993 UTC launched from the Plesetsk Missile And Space Complex (PKMTR). The debris from Iridium 33, an American commercial communications satellite, has been tracked extensively since its accidental collision with the defunct Russian satellite Cosmos 2251 in 2009. This event, occurring at high speed in low Earth orbit (LEO), generated thousands of pieces of space debris, significantly increasing the risk of further collisions. The Iridium 33 debris cloud has impacted space traffic management and orbital debris mitigation strategies, making it a subject of ongoing study in space situational awareness.

Loading next visibility...
Identifier
39553, 1993-036BUK
Orbit
LEO
Country
Flag of CISCIS
Related business
Manufacturer
Unknown
Mission
Spacecraft
Bus & Motor
Unknown
Mass
Unknown
Launch date (UTC)
1993-06-16 (33 years ago)
Launch vehicle
Unknown
Launch site
Plesetsk Missile And Space Complex (PKMTR)
Object type
Payload
Rocket body
Debris
Shape & HBR
Unknown shape, 0.1 m
Radar Cross Section
Medium (>0.1 m² and <1 m²)

Expand to show TLE details & history
Last TLE update: 3 days ago

TLE from 3 days ago
0 COSMOS 2251 DEB
1 39553U 93036BUK 26250.63434950  .00001545  00000-0  87358-3 0  9994
2 39553  74.0269 223.8185 0207043 297.7089  60.3175 14.00802438793812
Epoch: 2026-09-07T15:13Z
TLE epoch observation values (Epoch: 2026-09-07T15:13:27.796Z)
Latitude
-0.00003°
Longitude
8.74038°
Altitude
821.436 km
Speed
7.479 km/s
True Right ascension
14h 55m 16s
True Declination
0° 00' 00"
Sunlit
Object was in daylight at epoch
Visualization orbit readout
Latitude
Unknown
Longitude
Unknown
Altitude
Unknown
Speed
Unknown
Apparent Right ascension
Unknown
Apparent Declination
Unknown
Sunlit
N/A
Visualization observer readout
Local Sidereal Time
14:31:15
Azimuth
Unknown
Elevation
Unknown
Doppler factor
Unknown
Orbital elements
Apogee altitude
1,039.135 km
Perigee altitude
738.226 km
Semi-major axis
7,266.817 km
Eccentricity
0.0207
Inclination
74.0269°
RAAN
223.8185°
Arg. of periapsis
297.7089°
True anomaly
62.405°
Mean anomaly
60.3175°
Eccentric anomaly
61.35861°
Mean motion
3.5037 °/min
Orbital period
102.75 mins
BSTAR
0.00087358

Documentation

Showing up to 5 results
|